Overview Statistics Trail Chart Weather Telemetry Raw packets
 

This is the latest recevied weather packets stored in our database for station/object N7ZEF. If no packets are shown the sender has not sent any weather packets the latest 10 day(s).

<< 18 19 20 21 22 23 24 >>
Time Temp. Humidity Pressure Rain* Wind** Luminosity Snow
1777890762 4.44° C 51% 1012.2 hPa 0 mm - - -
1777890161 4.44° C 51% 1012.2 hPa 0 mm - - -
1777889559 4.44° C 50% 1012.2 hPa 0 mm - - -
1777888958 4.44° C 50% 1011.9 hPa 0 mm - - -
1777888356 5° C 49% 1011.9 hPa 0 mm - - -
1777887755 5.56° C 47% 1011.9 hPa 0 mm - - -
1777887154 5.56° C 47% 1011.9 hPa 0 mm - - -
1777886552 5.56° C 47% 1011.9 hPa 0 mm - - -
1777885951 5.56° C 47% 1011.8 hPa 0 mm - - -
1777885350 6.11° C 45% 1011.9 hPa 0 mm - - -
1777884748 5.56° C 45% 1011.9 hPa 0 mm - - -
1777884147 5.56° C 45% 1011.9 hPa 0 mm - - -
1777883545 5.56° C 46% 1011.9 hPa 0 mm - - -
1777882944 6.11° C 44% 1011.9 hPa 0 mm - - -
1777882343 6.67° C 43% 1011.9 hPa 0 mm - - -
1777881741 7.22° C 41% 1011.9 hPa 0 mm - - -
1777881140 7.78° C 40% 1012.2 hPa 0 mm - - -
1777880538 7.78° C 39% 1012.1 hPa 0 mm - - -
1777879937 8.33° C 38% 1012.1 hPa 0 mm - - -
1777879336 8.33° C 38% 1012.2 hPa 0 mm - - -
1777878734 7.78° C 38% 1012.2 hPa 0 mm - - -
1777878133 7.78° C 40% 1012.3 hPa 0 mm - - -
1777877532 7.78° C 40% 1012.2 hPa 0 mm - - -
1777876930 7.78° C 40% 1012.2 hPa 0 mm - - -
1777876329 7.78° C 40% 1012.3 hPa 0 mm - - -

* Rain latest hour (hover to see other rain measurements)
** Current wind speed in m/s (hover to see current wind gust speed)